FW6259 Weather Reports


time (UTC)temp
C
wind
direction
speed
KPH
gust
KPH
rain 1hr
cm
rain 24hr
cm
rain mn
cm
humidity
%
barometer
mb
20260902143052 -2 245 0.0 0.0 0.00 0.00 0.00 96 1010.6
20260902141545 -3 245 0.0 0.0 0.00 0.00 0.00 95 1010.4
20260902140043 -3 245 0.0 0.0 0.00 0.00 0.00 95 1010.4
20260902134554 -3 245 0.0 0.0 0.00 0.00 0.00 96 1010.2
20260902133056 -3 245 0.0 0.0 0.00 0.00 0.00 96 1010.2
20260902131504 -3 245 0.0 0.0 0.00 0.00 0.00 94 1010.1
20260902130054 -3 245 0.0 0.0 0.00 0.00 0.00 95 1009.9
20260902124551 -3 245 0.0 0.0 0.00 0.00 0.00 95 1009.7
20260902123105 -3 245 0.0 0.0 0.00 0.00 0.00 95 1009.6
20260902121605 -2 245 0.0 0.0 0.00 0.00 0.00 95 1009.6
20260902120047 -2 245 0.0 0.0 0.00 0.00 0.00 95 1009.6
20260902114502 -1 245 0.0 0.0 0.00 0.00 0.00 96 1009.5
20260902113059 -2 245 0.0 0.0 0.00 0.00 0.00 94 1009.6
20260902111549 -2 245 0.0 0.0 0.00 0.00 0.00 95 1009.7
20260902110001 -1 239 0.0 0.0 0.00 0.00 0.00 96 1009.6
20260902104608 -2 239 0.0 0.0 0.00 0.00 0.00 93 1009.6
20260902103051 -2 239 0.0 0.0 0.00 0.00 0.00 94 1009.4
20260902101501 -1 239 0.0 0.0 0.00 0.00 0.00 94 1009.5
20260902100049 -1 239 0.0 0.0 0.00 0.00 0.00 92 1009.3
20260902094550 -1 239 0.0 0.0 0.00 0.00 0.00 90 1009.5
20260902093056 -1 239 0.0 0.0 0.00 0.00 0.00 91 1009.3
20260902091600 0 239 0.0 0.0 0.00 0.00 0.00 93 1009.2
20260902090044 0 239 0.0 0.0 0.00 0.00 0.00 90 1009.3
20260902084606 0 239 0.0 0.0 0.00 0.00 0.00 92 1009.3
20260902083111 -1 239 0.0 0.0 0.00 0.00 0.00 93 1009.4
20260902081546 0 238 0.0 0.0 0.00 0.00 0.00 85 1009.3
20260902080057 0 238 0.0 0.0 0.00 0.00 0.00 86 1009.4
20260902074554 0 252 0.0 0.0 0.00 0.00 0.00 82 1009.5
20260902073046 0 40 0.0 0.0 0.00 0.00 0.00 82 1009.3
20260902071557 1 40 0.0 0.0 0.00 0.00 0.00 86 1009.3
20260902070052 1 40 0.0 0.0 0.00 0.00 0.00 86 1009.1
20260902064508 1 40 0.0 0.0 0.00 0.00 0.00 81 1009.0
20260902063056 1 40 0.0 0.0 0.00 0.00 0.00 79 1009.0
20260902061555 3 40 0.0 0.0 0.00 0.00 0.00 76 1008.7
20260902060039 3 40 0.0 0.0 0.00 0.00 0.00 79 1008.8
20260902054607 3 40 0.0 0.0 0.00 0.00 0.00 77 1008.8
20260902053100 5 40 0.0 0.0 0.00 0.00 0.00 74 1008.7
20260902051544 5 40 0.0 0.0 0.00 0.00 0.00 72 1008.7
20260902050108 6 40 0.0 0.0 0.00 0.00 0.00 70 1008.8
20260902044553 8 40 0.0 0.0 0.00 0.00 0.00 65 1008.7
20260902043052 10 40 0.0 0.0 0.00 0.00 0.00 60 1008.6
20260902041601 11 40 0.0 0.0 0.00 0.00 0.00 56 1008.6
20260902040053 12 40 0.0 0.0 0.00 0.00 0.00 55 1008.6
20260902034547 13 103 0.0 0.0 0.00 0.00 0.00 53 1008.6
20260902033044 13 103 0.0 0.0 0.00 0.00 0.00 53 1008.5
20260902031553 14 116 0.0 1.6 0.00 0.00 0.00 48 1008.5
20260902030044 14 320 0.0 3.2 0.00 0.00 0.00 46 1008.6
20260902024502 14 284 0.0 3.2 0.00 0.00 0.00 49 1008.7
20260902023100 13 5 0.0 0.0 0.00 0.00 0.00 53 1008.6
20260902021550 13 5 0.0 3.2 0.00 0.00 0.00 53 1008.6
20260902020059 13 2 0.0 3.2 0.00 0.00 0.00 52 1008.7
20260902014557 13 43 0.0 4.8 0.00 0.00 0.00 50 1008.6
20260902013047 14 122 3.2 11.3 0.00 0.00 0.00 47 1008.5
20260902011502 13 356 0.0 8.0 0.00 0.00 0.00 49 1008.6
20260902010053 13 53 3.2 8.0 0.00 0.00 0.00 49 1008.6
20260902004550 13 60 3.2 6.4 0.00 0.00 0.00 49 1008.7
20260902003108 13 8 3.2 9.7 0.00 0.00 0.00 50 1008.7
20260902001557 13 347 1.6 12.9 0.00 0.00 0.00 49 1008.7
20260902000050 13 111 3.2 11.3 0.00 0.00 0.00 49 1008.7
20260901234503 14 39 3.2 12.9 0.00 0.00 0.00 48 1008.7
20260901233054 15 94 3.2 11.3 0.00 0.00 0.00 46 1008.6
20260901231608 14 335 6.4 14.5 0.00 0.00 0.00 49 1008.8
20260901230001 13 347 4.8 12.9 0.00 0.00 0.00 51 1009.0
20260901224559 13 2 3.2 16.1 0.00 0.00 0.00 52 1009.1
20260901223050 13 34 6.4 14.5 0.00 0.00 0.00 51 1008.9
20260901221608 14 51 6.4 12.9 0.00 0.00 0.00 46 1009.0
20260901220121 14 26 6.4 22.5 0.00 0.00 0.00 47 1009.1
20260901214554 13 145 6.4 14.5 0.00 0.00 0.00 50 1009.2
20260901213100 13 39 9.7 27.4 0.00 0.00 0.00 50 1009.4
20260901211501 13 49 4.8 19.3 0.00 0.00 0.00 52 1009.3
20260901210051 14 349 6.4 17.7 0.00 0.00 0.00 54 1009.4
20260901204513 13 28 9.7 25.7 0.00 0.00 0.00 56 1009.5
20260901203102 13 32 8.0 20.9 0.00 0.00 0.00 55 1009.7
20260901201557 12 29 9.7 22.5 0.00 0.00 0.00 54 1009.6
20260901200111 13 317 4.8 19.3 0.00 0.00 0.00 55 1009.7
20260901194501 12 108 9.7 20.9 0.00 0.00 0.00 55 1009.8
20260901193054 12 65 8.0 24.1 0.00 0.00 0.00 56 1009.8
20260901191623 12 308 4.8 24.1 0.00 0.00 0.00 61 1010.0
20260901190040 11 65 9.7 24.1 0.00 0.00 0.00 62 1010.0
20260901184557 11 89 4.8 14.5 0.00 0.00 0.00 65 1010.1
20260901183055 10 104 9.7 20.9 0.00 0.00 0.00 67 1010.2
20260901181551 10 83 9.7 20.9 0.00 0.00 0.00 64 1010.2
20260901180057 10 34 3.2 16.1 0.00 0.00 0.00 68 1010.3
20260901174556 10 41 4.8 20.9 0.00 0.00 0.00 68 1010.3
20260901173044 9 20 9.7 20.9 0.00 0.00 0.00 68 1010.1
20260901171604 8 30 4.8 22.5 0.00 0.00 0.00 71 1010.2
20260901170056 7 1 6.4 17.7 0.00 0.00 0.00 72 1010.3
20260901164502 7 36 8.0 17.7 0.00 0.00 0.00 73 1010.3
20260901163056 6 54 1.6 11.3 0.00 0.00 0.00 76 1010.3
20260901161553 6 23 4.8 14.5 0.00 0.00 0.00 77 1010.3
20260901160001 5 317 3.2 16.1 0.00 0.00 0.00 79 1010.0
20260901154557 4 338 6.4 19.3 0.00 0.00 0.00 81 1010.1
20260901153059 4 31 3.2 17.7 0.00 0.00 0.00 82 1010.0
20260901151600 3 327 4.8 14.5 0.00 0.00 0.00 85 1009.9
20260901150107 2 328 4.8 11.3 0.00 0.00 0.00 85 1009.7
20260901144550 2 77 4.8 12.9 0.00 0.00 0.00 86 1009.8